Location: Molveno
(46.1500°N, 10.9667°E)
Time: 01:11:21
(UTC+00:00)

Cosmos 2322 Rocket - Pass Details

Date: 05 July 2020
Orbit: 832 x 851 km, 71.0° (Epoch: 11 August)

Event Time Altitude Azimuth Distance (km) Brightness Sun altitude
Rises 19:53:05 0° 212° (SSW) 3,365 5.2 -6.7°
Reaches altitude 10° 19:55:31 10° 215° (SW) 2,435 4.5 -7.0°
Maximum altitude 20:01:05 69° 299° (WNW) 894 2.6 -7.7°
Drops below altitude 10° 20:06:42 10° 22° (NNE) 2,455 4.9 -8.3°
Sets 20:09:10 0° 25° (NNE) 3,395 5.6 -8.6°
